Harare Kutsaga, Zimbabwe

2:01 AM CAT on December 18, 2017 (GMT +0200)
Harare Kutsaga

Weather History for FVHA - April, 2012

Change the Weather History Date:

Sunday, April 8, 2012

  Actual Average Record
Temperature  
Mean Temperature 66 °F -  
Max Temperature 77 °F 77 °F 84 °F (1998)
Min Temperature 56 °F 52 °F 49 °F (2013)
Cooling Degree Days 2    
Growing Degree Days 16 (Base 50)    
Moisture  
Dew Point 57 °F    
Average Humidity 75    
Maximum Humidity 100    
Minimum Humidity 34    
Precipitation  
Precipitation 0.00 in 0.04 in - ()
Sea Level Pressure  
Sea Level Pressure 30.12 in    
Wind  
Wind Speed 6 mph ()    
Max Wind Speed 9 mph    
Max Gust Speed -    
Visibility 12.6 miles    
Events      
Averages and records for this station are not official NWS values.
T = Trace of Precipitation, MM = Missing Value Source: Averaged Metar Reports

Daily Weather History Graph

Daily Weather History Graph

Search for Another Location

Airport or City:

Trip Planner

Search our weather history database for the weather conditions in past years. The results will help you decide how hot, cold, wet, or windy it might be!

Date:

Astronomy

Apr. 08, 2012 Rise Set
Actual Time 6:03 AM CAT 5:50 PM CAT
Civil Twilight 5:41 AM CAT 6:12 PM CAT
Nautical Twilight 5:16 AM CAT 6:38 PM CAT
Astronomical Twilight 4:50 AM CAT 7:03 PM CAT
Moon 7:15 PM CAT (4/8) 7:32 AM CAT (4/8)
Length of Visible Light 12h 31m
Length of Day
11h 47m
Waning Gibbous, 96% of the Moon is Illuminated
Apr 8
Waning Gibbous
Apr 13
Last Quarter
Apr 21
New
Apr 29
First Quarter
May 6
Full

Hourly Weather History & Observations

Time (CAT) Temp. Dew Point Humidity Pressure Visibility Wind Dir Wind Speed Gust Speed Precip Events Conditions
1:00 AM 59.0 °F 55.4 °F 88% 30.12 in - ENE 9.2 mph - N/A   Clear
2:00 AM 58 °F 56 °F 91%  in 19 mi ENE 8.1 mph - -  
2:00 AM 59.0 °F 55.4 °F 88% 30.12 in - ENE 8.1 mph - N/A   Clear
3:00 AM 55.4 °F 55.4 °F 100% 30.12 in - ENE 5.8 mph - N/A   Clear
4:00 AM 59.0 °F 57.2 °F 94% 30.12 in - ENE 6.9 mph - N/A   Clear
5:00 AM 57.2 °F 57.2 °F 100% 30.12 in - ENE 5.8 mph - N/A   Clear
6:00 AM 59.0 °F 57.2 °F 94% 30.15 in - ENE 8.1 mph - N/A   Clear
7:00 AM 59.0 °F 57.2 °F 94% 30.15 in - NE 6.9 mph - N/A   Clear
8:00 AM 62 °F 58 °F 84%  in 19 mi NE 8.1 mph - -   Mostly Cloudy
8:00 AM 62.6 °F 59.0 °F 88% 30.18 in - NE 8.1 mph - N/A   Clear
9:00 AM 66.2 °F 59.0 °F 78% 30.18 in - NNE 8.1 mph - N/A   Clear
10:00 AM 69.8 °F 57.2 °F 64% 30.18 in 6.2 mi Variable 4.6 mph - N/A   Mostly Cloudy
11:00 AM 73.4 °F 55.4 °F 53% 30.15 in 6.2 mi Variable 2.3 mph - N/A   Mostly Cloudy
12:00 PM 73.4 °F 53.6 °F 50% 30.12 in 6.2 mi Variable 3.5 mph - N/A   Scattered Clouds
1:00 PM 75.2 °F 55.4 °F 50% 30.09 in 6.2 mi Variable 8.1 mph - N/A   Scattered Clouds
2:00 PM 78 °F 55 °F 34%  in 19 mi WNW 6.9 mph - -   Mostly Cloudy
2:00 PM 78.8 °F 55.4 °F 44% 30.09 in - Variable 4.6 mph - N/A   Clear
4:00 PM 75.2 °F 53.6 °F 47% 30.06 in - NW 5.8 mph - N/A   Clear
5:00 PM 73.4 °F 57.2 °F 57% 30.06 in - NNW 4.6 mph - N/A   Clear
6:00 PM 69.8 °F 57.2 °F 64% 30.06 in - NNE 5.8 mph - N/A   Clear
8:00 PM 66 °F 59 °F 70%  in 19 mi NNE 5.8 mph - -   Partly Cloudy
8:00 PM 66.2 °F 59.0 °F 78% 30.09 in - NNE 5.8 mph - N/A   Clear
9:00 PM 64.4 °F 59.0 °F 83% 30.12 in - NNE 5.8 mph - N/A   Clear
10:00 PM 60.8 °F 57.2 °F 88% 30.12 in - NNE 4.6 mph - N/A   Clear
11:00 PM 64.4 °F 59.0 °F 83% 30.12 in - NNE 5.8 mph - N/A   Clear